Regional Weather Roundup
Issued by NWS

Home | Current Version | Previous Version | Graphics & Text | Print | Product List | Glossary On
Versions: 1 2 3 4 5 6 7 8 9 10 11 12 13 14 15 16 17 18 19 20 21 22 23 24 25 26 27 28 29 30 31 32 33 34 35 36 37 38 39 40 41 42 43 44 45 46 47 48 49 50
000
ASUS43 KMKX 281221
RWRWI

WISCONSIN REGIONAL WEATHER ROUNDUP
NATIONAL WEATHER SERVICE MILWAUKEE/SULLIVAN WI
700 AM CDT WED SEP 28 2016

NOTE: "FAIR" INDICATES FEW OR NO CLOUDS BELOW 12,000 FEET WITH NO
SIGNIFICANT WEATHER AND/OR OBSTRUCTIONS TO VISIBILITY.

WIZ001-002-006>008-014>016-023>028-281300-
NORTHWEST WISCONSIN

CITY           SKY/WX    TMP DP  RH WIND       PRES   REMARKS
SUPERIOR ARPT  CLOUDY    53  48  84 N7        30.07R
6HR MIN TEMP:  51; 6HR MAX TEMP:  54;

ASHLAND        CLOUDY    53  50  89 NE14      30.03R
6HR MIN TEMP:  52; 6HR MAX TEMP:  53; 6HR PCP:  0.03;

HAYWARD        CLOUDY    52  49  89 N13G21    30.01R
6HR MIN TEMP:  49; 6HR MAX TEMP:  53; 6HR PCP: TRACE;

SIREN          CLOUDY    51  48  90 N7        30.05R
6HR MIN TEMP:  44; 6HR MAX TEMP:  51;

CUMBERLAND     CLOUDY    50  46  87 N13G20    30.01R
RICE LAKE      CLOUDY    51  49  90 NW7       30.01R
6HR MIN TEMP:  49; 6HR MAX TEMP:  51;

CHETEK         NOT AVBL
LADYSMITH      MOCLDY    52  50  93 N9        29.98R
6HR MIN TEMP:  49; 6HR MAX TEMP:  52;

EAU CLAIRE     CLOUDY    52  49  89 N10       29.96R
6HR MIN TEMP:  49; 6HR MAX TEMP:  52;

MENOMONIE      CLOUDY    51  51 100 NW9       29.98R
6HR MIN TEMP:  48; 6HR MAX TEMP:  51;

NEW RICHMOND   CLOUDY    50  49  95 N8        30.02R
6HR MIN TEMP:  47; 6HR MAX TEMP:  50;

OSCEOLA        CLOUDY    51  51 100 N9        30.06R
6HR MIN TEMP:  48; 6HR MAX TEMP:  51;

$$

WIZ003>005-009-010-017-018-281300-
NORTH CENTRAL WISCONSIN

CITY           SKY/WX    TMP DP  RH WIND       PRES   REMARKS
MANITOWISH WTR NOT AVBL
ARBOR VITAE    CLOUDY    52  50  95 N8G20     29.94R
6HR MIN TEMP:  52; 6HR MAX TEMP:  52;

WOODRUFF       CLOUDY    52  50  95 N8G20     29.94R
6HR MIN TEMP:  52; 6HR MAX TEMP:  52;

RHINELANDER    LGT RAIN  51  51 100 VRB7      29.94R
6HR MIN TEMP:  49; 6HR MAX TEMP:  51; 6HR PCP:  0.01;

EAGLE RIVER    CLOUDY    50  50  99 N9G16     29.93R
6HR MIN TEMP:  48; 6HR MAX TEMP:  51;

LAND O LAKES   CLOUDY    51  49  92 NE12G20   29.96R
6HR MIN TEMP:  50; 6HR MAX TEMP:  51;

PHILLIPS       CLOUDY    50  49  96 N10G23    29.94R
6HR MIN TEMP:  47; 6HR MAX TEMP:  50; 6HR PCP:  0.02;

TOMAHAWK       CLOUDY    49  48  96 NW3       29.93R
6HR MIN TEMP:  47; 6HR MAX TEMP:  49;

MEDFORD        CLOUDY   N/A N/A N/A N5        29.92R
MERRILL        PTCLDY    49  49  98 CALM      29.92R
6HR MIN TEMP:  48; 6HR MAX TEMP:  51;

$$

WIZ029-030-035-036-043>047-281300-
CENTRAL WISCONSIN

CITY           SKY/WX    TMP DP  RH WIND       PRES   REMARKS
WAUSAU         CLOUDY    51  48  89 N5        29.89R
6HR MIN TEMP:  49; 6HR MAX TEMP:  51;

MOSINEE        CLOUDY    50  50 100 N6        29.91
MARSHFIELD     CLOUDY    52  48  86 N8        29.91R
6HR MIN TEMP:  49; 6HR MAX TEMP:  52;

STEVENS POINT  CLOUDY    48  48 100 N6        29.90R
6HR MIN TEMP:  46; 6HR MAX TEMP:  48;

WAUPACA        CLOUDY    53  51  96 N6        29.89R
6HR MIN TEMP:  51; 6HR MAX TEMP:  53;

WAUTOMA        CLOUDY    51  49  92 NW5       29.89R
6HR MIN TEMP:  48; 6HR MAX TEMP:  51;

WISC RAPIDS    CLOUDY    51  50  96 N7        29.91R
6HR MIN TEMP:  49; 6HR MAX TEMP:  51; 6HR PCP: TRACE;

CAMP DOUGLAS   CLOUDY    50  50 100 NW7       29.90R
                                      6HR PCP:  0.01;

$$

WIZ011>013-019>022-031-037>040-048>050-281300-
NORTHEAST WISCONSIN

CITY           SKY/WX    TMP DP  RH WIND       PRES   REMARKS
ANTIGO         CLOUDY    49  49  97 CALM      29.91R
6HR MIN TEMP:  47; 6HR MAX TEMP:  50;

SHAWANO        CLOUDY    53  50  90 N8        29.89R
6HR MIN TEMP:  51; 6HR MAX TEMP:  53;

OCONTO         NOT AVBL
STURGEON BAY   CLOUDY    53  51  93 N7        29.86R
6HR MIN TEMP:  49; 6HR MAX TEMP:  53; 6HR PCP:  0.11;

GREEN BAY      MOCLDY    50  50 100 N9        29.87R
6HR MIN TEMP:  49; 6HR MAX TEMP:  50; 6HR PCP: TRACE;

MANITOWOC      MOCLDY    49  47  93 MISG      29.85R
6HR MIN TEMP:  48; 6HR MAX TEMP:  50;

APPLETON       MOCLDY    50  50 100 N6        29.85R
CLINTONVILLE   NOT AVBL
OSHKOSH        CLOUDY    51  48  89 NW7       29.86R
6HR MIN TEMP:  50; 6HR MAX TEMP:  51;

$$

WIZ032>034-041-042-053>061-281300-
SOUTHWEST WISCONSIN

CITY           SKY/WX    TMP DP  RH WIND       PRES   REMARKS
LA CROSSE      CLOUDY    53  50  89 N13       29.93R
6HR MIN TEMP:  52; 6HR MAX TEMP:  53; 6HR PCP: TRACE;

SPARTA         CLOUDY    49  49 100 NW5       29.92R FOG
6HR MIN TEMP:  48; 6HR MAX TEMP:  49; 6HR PCP:  0.01;

VIROQUA        CLOUDY    48  48 100 NW8       29.92R
6HR MIN TEMP:  47; 6HR MAX TEMP:  48; 6HR PCP:  0.01;

BOSCOBEL       LGT RAIN  51  48  89 NW7       29.92R
6HR MIN TEMP:  51; 6HR MAX TEMP:  52; 6HR PCP:  0.01;

PRAIRIE DU CHI CLOUDY    51  46  84 NW10      29.93R
6HR MIN TEMP:  50; 6HR MAX TEMP:  51;

PLATTEVILLE    CLOUDY    49  49 100 NW10      29.90R
6HR MIN TEMP:  47; 6HR MAX TEMP:  49;

$$

WIZ056-057-062-063-064-067-068-281300-
SOUTH CENTRAL WISCONSIN

CITY           SKY/WX    TMP DP  RH WIND       PRES   REMARKS
REEDSBURG      NOT AVBL
BARABOO/DELLS  DRIZZLE   48  47  96 NW6       29.88R
6HR MIN TEMP:  47; 6HR MAX TEMP:  48;

LONE ROCK      CLOUDY    51  47  86 NW7       29.91R
6HR MIN TEMP:  50; 6HR MAX TEMP:  51;

MINERAL POINT  CLOUDY    50  48  93 NW8       29.90R
MADISON        DRIZZLE   49  48  97 NW6       29.88R FOG
6HR MIN TEMP:  48; 6HR MAX TEMP:  49; 6HR PCP: TRACE;

MIDDLETON      CLOUDY    51  51 100 NW6       29.88R
6HR MIN TEMP:  49; 6HR MAX TEMP:  51;

WATERTOWN      CLOUDY    49  49 100 NW7       29.85R
6HR MIN TEMP:  48; 6HR MAX TEMP:  49; 6HR PCP:  0.04;

MONROE         CLOUDY    46  46 100 NW7       29.86R
JANESVILLE     CLOUDY    52  50  93 SW7       29.85R
$$

WIZ051-052-058>065-066-070>072-281300-
SOUTHEAST WISCONSIN

CITY           SKY/WX    TMP DP  RH WIND       PRES   REMARKS
MILWAUKEE      CLOUDY    52  49  89 NW7       29.84R
6HR MIN TEMP:  50; 6HR MAX TEMP:  52; 6HR PCP:  0.03;

WAUKESHA       LGT RAIN  48  46  93 NW6       29.85R
MILWAUKEE/TIMM MOCLDY    48  45  87 NW5       29.84R
RACINE         CLOUDY    50  48  93 NW3       29.85R
6HR MIN TEMP:  50; 6HR MAX TEMP:  51; 6HR PCP:  0.01;

BURLINGTON     CLOUDY    48  47  96 N5        29.84R
6HR MIN TEMP:  47; 6HR MAX TEMP:  48;

KENOSHA        CLOUDY    50  47  89 N5        29.84R
6HR MIN TEMP:  49; 6HR MAX TEMP:  51; 6HR PCP: TRACE;

FOND DU LAC    CLOUDY    51  49  92 NW9       29.86R
6HR MIN TEMP:  49; 6HR MAX TEMP:  51; 6HR PCP: TRACE;

SHEBOYGAN      CLOUDY    48  46  93 NW6       29.85R
6HR MIN TEMP:  48; 6HR MAX TEMP:  50; 6HR PCP: TRACE;

WEST BEND      CLOUDY    48  46  93 N5        29.85R
JUNEAU         CLOUDY    49  47  96 NW7       29.87R
6HR MIN TEMP:  47; 6HR MAX TEMP:  49;

$$

LSZ147-162-281300-
LAKE SUPERIOR

STATION/POSITION TIME  TEMP    WIND        PRES    WAVE
                       AIR SEA DIR/SP/G            HT/PER
                 (UTC) (F)     (DEG/KT/KT) (MB)    (FT/S)
W MID LAKE BUOY  1150   55 52   30/ 21/ 25 1016.0R   6/ 7
DEVILS ISLAND    1200   53      10/ 17/ 19 1017.7R
SAXON HARBOR     1100   56      20/ 20/ 23 1014.9R
$$

LMZ867-665-643>646-281300-
LAKE MICHIGAN

STATION/POSITION TIME  TEMP    WIND        PRES    WAVE
                       AIR SEA DIR/SP/G            HT/PER
                 (UTC) (F)     (DEG/KT/KT) (MB)    (FT/S)
CHAMBERS ISLAND  1100   58      30/ 11/ 16 1010.2R
N MID LAKE BUOY  1150   57 66  120/ 12/ 16 1011.4R   2/ 6
NORTHPORT PIER   1100   56      50/  4/  5 1010.5R
SISTER BAY       1038   54      40/  4/  7   N/A
KEWAUNEE LAKESHO 1100   50     320/  4/C1F1C2F2C3F3C4F4C5F5C6F6C7F7C8M1C9M2Ca!



USA.gov is the U.S. government's official web portal to all federal, state and local government web resources and services.